Location: Cardiff
(53.7833°N, 113.6000°W)
Time: 20:52:21
(UTC+00:00)

Oscar 19 - Pass Details

Date: 03 December 2023
Orbit: 771 x 789 km, 98.9° (Epoch: 04 March)

Event Time Altitude Azimuth Distance (km) Brightness Sun altitude
Rises 14:43:22 0° 8° (N) 3,270 13.6 -6.8°
Reaches altitude 10° 14:46:41 10° 345° (NNW) 2,341 12.7 -6.4°
Maximum altitude 14:49:23 15° 313° (NW) 2,038 12.2 -6.0°
Drops below altitude 10° 14:52:06 10° 281° (W) 2,341 12.5 -5.7°
Sets 14:55:26 0° 258° (WSW) 3,269 13.4 -5.2°
